This demonstration page uses our WeatherBlox Daily Observations layout. Learn more.

Left ArrowRight Arrow

44.8408, -93.29828

Hourly Observations for October 4, 2022

Temp ( °F °C ) Dew Point ( °F °C ) Humidity (%) Winds ( mph kmh ) Pressure ( in mb ) Visibility ( mi km ) Precip ( " mm )
12:53 am 00:53 Mostly Cloudy 63 17.2 45 7.2 52 52 S 9 15 30.18 1022 10 16 0.00 0.00
1:53 am 01:53 Mostly Cloudy 63 17.2 44 6.7 50 50 SSE 7 11 30.16 1022 10 16 0.00 0.00
2:53 am 02:53 Cloudy 61 16.1 44 6.7 54 54 SSE 6 9 30.17 1022 10 16 0.00 0.00
3:53 am 03:53 Cloudy 61 16.1 44 6.7 54 54 SE 5 7 30.16 1021 10 16 0.00 0.00
4:53 am 04:53 Cloudy 59 15 45 7.2 60 60 SE 5 7 30.16 1021 10 16 0.00 0.00
5:53 am 05:53 Cloudy 58 14.4 45 7.2 62 62 SE 8 13 30.16 1021 10 16 0.00 0.00
6:53 am 06:53 Mostly Cloudy 57 13.9 45 7.2 64 64 SSE 8 13 30.15 1021 10 16 0.00 0.00
7:53 am 07:53 Mostly Cloudy 58 14.4 46 7.8 65 65 SSE 8 13 30.15 1021 10 16 0.00 0.00
8:53 am 08:53 Mostly Cloudy 59 15 46 7.8 62 62 SSE 6 9 30.15 1021 10 16 0.00 0.00
9:53 am 09:53 Mostly Cloudy 62 16.7 46 7.8 56 56 S 6 9 30.14 1021 10 16 0.00 0.00
10:53 am 10:53 Mostly Cloudy 67 19.4 48 8.9 51 51 S 6 9 30.13 1020 10 16 0.00 0.00
11:53 am 11:53 Cloudy 72 22.2 48 8.9 43 43 S 10 17 30.11 1020 10 16 0.00 0.00
12:53 pm 12:53 Cloudy 75 23.9 48 8.9 38 38 S 10 17 30.09 1019 10 16 0.00 0.00
1:53 pm 13:53 Cloudy 77 25 47 8.3 35 35 S 10 17 30.07 1018 10 16 0.00 0.00
2:53 pm 14:53 Cloudy 78 25.6 45 7.2 31 31 S 12 19 30.05 1018 10 16 0.00 0.00
3:53 pm 15:53 Cloudy 77 25 46 7.8 33 33 S 13 20 30.04 1017 10 16 0.00 0.00
4:53 pm 16:53 Cloudy 76 24.4 46 7.8 35 35 S 9 15 30.04 1017 10 16 0.00 0.00
5:53 pm 17:53 Cloudy 74 23.3 47 8.3 38 38 S 6 9 30.04 1017 10 16 0.00 0.00
6:53 pm 18:53 Cloudy 71 21.7 48 8.9 44 44 SE 6 9 30.04 1017 10 16 0.00 0.00
7:53 pm 19:53 Mostly Cloudy 69 20.6 48 8.9 47 47 SSE 7 11 30.04 1017 10 16 0.00 0.00
8:53 pm 20:53 Mostly Cloudy 67 19.4 48 8.9 51 51 SSE 6 9 30.04 1017 10 16 0.00 0.00
9:53 pm 21:53 Mostly Cloudy 68 20 46 7.8 45 45 S 9 15 30.04 1017 10 16 0.00 0.00
10:53 pm 22:53 Cloudy 66 18.9 46 7.8 48 48 S 6 9 30.05 1018 10 16 0.00 0.00
11:53 pm 23:53 Cloudy 66 18.9 49 9.4 54 54 NW 7 11 30.04 1017 10 16 0.00 0.00

Powered by AerisWeather